Location: Unspecified
(0.0000°N, 0.0000°E)
Time: 09:41:09
(UTC+00:00)

A-11 Canister half - Pass Details

Date: 08 August 2021
Orbit: 1515 x 1685 km, 47.2° (Epoch: 27 September)

Event Time Altitude Azimuth Distance (km) Brightness Sun altitude
Rises 13:58:33 0° 260° (W) 4,668 11.9 57.9°
Reaches altitude 10° 14:03:11 10° 280° (W) 3,703 11.7 56.9°
Maximum altitude 14:08:27 16° 315° (NW) 3,259 11.6 55.8°
Drops below altitude 10° 14:13:48 10° 350° (N) 3,763 11.5 54.6°
Sets 14:18:40 0° 10° (N) 4,781 11.7 53.5°
